Change the Weather History Date:

Saturday, February 15, 2014

  Actual Average (KTIK) Record (KTIK)
Temperature  
Mean Temperature 51 °F -  
Max Temperature 69 °F 52 °F 77 °F (2000)
Min Temperature 33 °F 33 °F 11 °F (2007)
Degree Days  
Heating Degree Days 14    
Growing Degree Days 1 (Base 50)    
Moisture  
Dew Point 33 °F    
Average Humidity 58    
Maximum Humidity 87    
Minimum Humidity 30    
Precipitation  
Precipitation 0.00 in - - ()
Sea Level Pressure  
Sea Level Pressure 30.05 in    
Wind  
Wind Speed 5 mph (South)    
Max Wind Speed 17 mph    
Max Gust Speed 24 mph    
Visibility 10 miles    
Events      
Averages and records for this station are not official NWS values.
T = Trace of Precipitation, MM = Missing Value Source: NWS Daily Summary

Daily Weather History Graph

Daily Weather History Graph

Search for Another Location

Airport or City:

Trip Planner

Search our weather history database for the weather conditions in past years. The results will help you decide how hot, cold, wet, or windy it might be!

Date:

Astronomy

Feb. 15, 2014 Rise Set
Actual Time 7:14 AM CST 6:10 PM CST
Civil Twilight 6:48 AM CST 6:36 PM CST
Nautical Twilight 6:18 AM CST 7:05 PM CST
Astronomical Twilight 5:48 AM CST 7:35 PM CST
Moon 7:07 PM CST (2/15) 7:16 AM CST (2/15)
Length of Visible Light 11h 48m
Length of Day
10h 55m
Waxing Gibbous, 99% of the Moon is Illuminated
Feb 15
Waxing Gibbous
Feb 22
Last Quarter
Mar 1
New
Mar 8
First Quarter
Mar 16
Full

Hourly Weather History & Observations

Time (CST) Temp. Windchill Dew Point Humidity Pressure Visibility Wind Dir Wind Speed Gust Speed Precip Events Conditions
12:15 AM 35.6 °F - 30.2 °F 81% 30.14 in 10.0 mi Calm Calm - N/A   Scattered Clouds
12:35 AM 35.6 °F - 30.2 °F 81% 30.13 in 10.0 mi Calm Calm - N/A   Clear
12:55 AM 33.8 °F - 26.6 °F 75% 30.12 in 10.0 mi Calm Calm - N/A   Clear
1:15 AM 33.8 °F - 28.4 °F 81% 30.12 in 10.0 mi Calm Calm - N/A   Clear
1:35 AM 33.8 °F - 26.6 °F 75% 30.12 in 10.0 mi Calm Calm - N/A   Clear
1:55 AM 35.6 °F - 32.0 °F 87% 30.12 in 10.0 mi Calm Calm - N/A   Clear
2:15 AM 35.6 °F - 30.2 °F 81% 30.12 in 10.0 mi Calm Calm - N/A   Clear
2:35 AM 35.6 °F - 32.0 °F 87% 30.11 in 10.0 mi Calm Calm - N/A   Scattered Clouds
2:55 AM 35.6 °F 32.8 °F 32.0 °F 87% 30.10 in 10.0 mi East 3.5 mph - N/A   Scattered Clouds
3:15 AM 35.6 °F 31.7 °F 30.2 °F 81% 30.10 in 10.0 mi ESE 4.6 mph - N/A   Scattered Clouds
3:35 AM 35.6 °F 31.7 °F 32.0 °F 87% 30.10 in 10.0 mi SE 4.6 mph - N/A   Scattered Clouds
3:55 AM 35.6 °F 31.7 °F 32.0 °F 87% 30.09 in 10.0 mi SE 4.6 mph - N/A   Clear
4:15 AM 35.6 °F 32.8 °F 32.0 °F 87% 30.09 in 10.0 mi SE 3.5 mph - N/A   Clear
4:35 AM 35.6 °F - 30.2 °F 81% 30.10 in 10.0 mi Calm Calm - N/A   Scattered Clouds
4:55 AM 35.6 °F - 32.0 °F 87% 30.11 in 10.0 mi Calm Calm - N/A   Scattered Clouds
5:15 AM 35.6 °F - 30.2 °F 81% 30.11 in 10.0 mi Calm Calm - N/A   Scattered Clouds
5:35 AM 35.6 °F 32.8 °F 32.0 °F 87% 30.10 in 10.0 mi SSE 3.5 mph - N/A   Scattered Clouds
5:55 AM 33.8 °F 30.8 °F 30.2 °F 87% 30.11 in 10.0 mi SE 3.5 mph - N/A   Scattered Clouds
6:15 AM 33.8 °F 29.6 °F 30.2 °F 87% 30.10 in 10.0 mi SSE 4.6 mph - N/A   Scattered Clouds
6:35 AM 35.6 °F 30.7 °F 32.0 °F 87% 30.10 in 10.0 mi SSE 5.8 mph - N/A   Scattered Clouds
6:55 AM 35.6 °F 30.7 °F 32.0 °F 87% 30.09 in 10.0 mi SSE 5.8 mph - N/A   Scattered Clouds
7:15 AM 35.6 °F 31.7 °F 32.0 °F 87% 30.09 in 10.0 mi South 4.6 mph - N/A   Scattered Clouds
7:35 AM 33.8 °F 29.6 °F 30.2 °F 87% 30.10 in 10.0 mi South 4.6 mph - N/A   Scattered Clouds
7:55 AM 35.6 °F 31.7 °F 32.0 °F 87% 30.09 in 10.0 mi South 4.6 mph - N/A   Clear
8:15 AM 35.6 °F 30.7 °F 32.0 °F 87% 30.09 in 10.0 mi SSE 5.8 mph - N/A   Clear
8:35 AM 37.4 °F 31.4 °F 32.0 °F 81% 30.08 in 10.0 mi South 8.1 mph - N/A   Clear
8:55 AM 41.0 °F 34.7 °F 32.0 °F 70% 30.07 in 10.0 mi South 10.4 mph - N/A   Clear
9:15 AM 42.8 °F 37.5 °F 33.8 °F 70% 30.08 in 10.0 mi South 9.2 mph - N/A   Clear
9:35 AM 44.6 °F 39.7 °F 33.8 °F 66% 30.09 in 10.0 mi South 9.2 mph - N/A   Clear
9:55 AM 48.2 °F - 33.8 °F 58% 30.09 in 10.0 mi South 8.1 mph - N/A   Clear
10:15 AM 51.8 °F - 35.6 °F 54% 30.09 in 10.0 mi South 10.4 mph - N/A   Clear
10:35 AM 53.6 °F - 35.6 °F 51% 30.08 in 10.0 mi SSW 9.2 mph 18.4 mph N/A   Clear
10:55 AM 55.4 °F - 35.6 °F 47% 30.07 in 10.0 mi South 13.8 mph 18.4 mph N/A   Clear
11:15 AM 59.0 °F - 35.6 °F 42% 30.06 in 10.0 mi SSW 11.5 mph 19.6 mph N/A   Clear
11:35 AM 60.8 °F - 35.6 °F 39% 30.05 in 10.0 mi SSW 15.0 mph 20.7 mph N/A   Clear
11:55 AM 60.8 °F - 35.6 °F 39% 30.03 in 10.0 mi South 15.0 mph 18.4 mph N/A   Clear
12:15 PM 62.6 °F - 35.6 °F 37% 30.02 in 10.0 mi SSW 17.3 mph 24.2 mph N/A   Clear
12:35 PM 62.6 °F - 35.6 °F 37% 30.01 in 10.0 mi SSW 13.8 mph 21.9 mph N/A   Clear
12:55 PM 62.6 °F - 35.6 °F 37% 30.00 in 10.0 mi SW 13.8 mph - N/A   Clear
1:15 PM 64.4 °F - 35.6 °F 34% 29.99 in 10.0 mi SSW 13.8 mph - N/A   Clear
1:35 PM 66.2 °F - 35.6 °F 32% 29.97 in 10.0 mi SSW 13.8 mph 23.0 mph N/A   Clear
1:55 PM 68.0 °F - 35.6 °F 30% 29.96 in 10.0 mi SW 16.1 mph 23.0 mph N/A   Clear
2:15 PM 68.0 °F - 37.4 °F 33% 29.94 in 10.0 mi SSW 16.1 mph 20.7 mph N/A   Clear
2:35 PM 68.0 °F - 35.6 °F 30% 29.92 in 10.0 mi SSW 13.8 mph 21.9 mph N/A   Clear
2:55 PM 69.8 °F - 37.4 °F 31% 29.92 in 10.0 mi SSW 13.8 mph 17.3 mph N/A   Clear
3:15 PM 68.0 °F - 35.6 °F 30% 29.92 in 10.0 mi SSW 16.1 mph 20.7 mph N/A   Clear
3:35 PM 68.0 °F - 35.6 °F 30% 29.93 in 10.0 mi SSW 17.3 mph - N/A   Clear
3:55 PM 68.0 °F - 35.6 °F 30% 29.93 in 10.0 mi SW 13.8 mph 19.6 mph N/A   Clear
4:15 PM 68.0 °F - 35.6 °F 30% 29.95 in 10.0 mi SW 13.8 mph 21.9 mph N/A   Clear
4:35 PM 68.0 °F - 35.6 °F 30% 29.95 in 10.0 mi SW 15.0 mph 19.6 mph N/A   Clear
4:55 PM 68.0 °F - 35.6 °F 30% 29.96 in 10.0 mi SW 10.4 mph - N/A   Clear
5:15 PM 66.2 °F - 35.6 °F 32% 29.95 in 10.0 mi SSW 11.5 mph 17.3 mph N/A   Clear
5:35 PM 64.4 °F - 33.8 °F 32% 29.98 in 10.0 mi SW 5.8 mph - N/A   Clear
5:55 PM 62.6 °F - 33.8 °F 34% 29.99 in 10.0 mi SW 3.5 mph - N/A   Clear
6:15 PM 60.8 °F - 33.8 °F 36% 30.00 in 10.0 mi Calm Calm - N/A   Clear
6:35 PM 57.2 °F - 32.0 °F 38% 30.02 in 10.0 mi Calm Calm - N/A   Clear
6:55 PM 55.4 °F - 32.0 °F 41% 30.02 in 10.0 mi Calm Calm - N/A   Clear
7:15 PM 55.4 °F - 33.8 °F 44% 30.02 in 10.0 mi South 3.5 mph - N/A   Clear
7:35 PM 57.2 °F - 33.8 °F 41% 30.02 in 10.0 mi South 4.6 mph - N/A   Clear
7:55 PM 55.4 °F - 33.8 °F 44% 30.03 in 10.0 mi South 4.6 mph - N/A   Clear
8:15 PM 55.4 °F - 33.8 °F 44% 30.03 in 10.0 mi South 5.8 mph - N/A   Clear
8:35 PM 55.4 °F - 33.8 °F 44% 30.04 in 10.0 mi SSW 3.5 mph - N/A   Clear
8:55 PM 53.6 °F - 32.0 °F 44% 30.04 in 10.0 mi Calm Calm - N/A   Clear
9:15 PM 51.8 °F - 32.0 °F 47% 30.04 in 10.0 mi South 4.6 mph - N/A   Clear
9:35 PM 51.8 °F - 33.8 °F 50% 30.05 in 10.0 mi Calm Calm - N/A   Clear
9:55 PM 51.8 °F - 33.8 °F 50% 30.06 in 10.0 mi South 3.5 mph - N/A   Clear
10:15 PM 51.8 °F - 33.8 °F 50% 30.06 in 10.0 mi Calm Calm - N/A   Scattered Clouds
10:35 PM 51.8 °F - 33.8 °F 50% 30.07 in 10.0 mi Calm Calm - N/A   Scattered Clouds
10:55 PM 48.2 °F - 33.8 °F 58% 30.07 in 10.0 mi Calm Calm - N/A   Clear
11:15 PM 48.2 °F - 32.0 °F 54% 30.07 in 10.0 mi Calm Calm - N/A   Clear
11:35 PM 46.4 °F 42.9 °F 33.8 °F 62% 30.08 in 10.0 mi North 6.9 mph - N/A   Clear
11:55 PM 44.6 °F - 33.8 °F 66% 30.08 in 10.0 mi Calm Calm - N/A   Clear